Погода в Хемел Хемпстед

Великобритания     51°45′05″N   0°25′47″E
темп.,
°C
ветер,
м/с
пор.,
м/с
влажн.,
%
обл.,
%
осадки,
мм/ч
давл.,
гПа
погр.,
м
27 января, ср
ср2700:00+5юз4899100 0.6 1010184
03:00+6з51189100 0.6 1009226
06:00+4зсз499680 0.6 1010163
09:00+4зсз4895100 0.0 1012178
12:00+7зсз479288 0.0 1013302
15:00+7зсз2693100 0.0 1013249
18:00+5зюз2294100 0.0 101325
21:00+6вюв2298100 1.6 101246
28 января, чт
чт2800:00+6вюв4799100 6.0 1009208
03:00+7ююв2399100 6.8 1005108
06:00+10зюз61496100 7.7 1002600
09:00+10зюз71592100 0.1 1002689
12:00+11з81591100 0.1 1002911
15:00+11зюз8148692 0.0 1003881
18:00+10зюз6149296 0.1 1003639
21:00+9ююз51196100 0.3 1001371
29 января, пт
пт2900:00+10зюз61392100 1.4 999566
03:00+7з71492100 0.0 998668
06:00+7з7169079 0.0 1001616
09:00+7зюз7149151 0.0 1002766
12:00+9з9138071 0.2 10031253
15:00+9зюз7127856 0.2 10021071
18:00+6зюз5138877 0.2 1001490
21:00+5юз369572 0.0 1000127
30 января, сб
сб3000:00+5юв229769 0.0 99722
03:00+6всв5996100 0.1 993297
06:00+5всв71393100 1.7 992593
09:00+5св101691100 2.6 995755
12:00+3св101586100 3.0 999791
15:00+3св9147277 0.0 10031070
18:00+1св6137839 0.0 1008670
21:000ссв38870 0.0 1011237
31 января, вс
вс3100:000с35920 0.0 1013120
03:000с008867 0.0 101322
06:000юв238483 0.0 101292
09:00+1юв4880100 0.0 1010466
12:00+2ююв71277100 0.1 1007816
15:00+3ююв71261100 0.0 1002799
18:00+2юв71278100 0.1 1000521
21:00+3ююв51195100 0.4 998420